KJ4AJP Weather Reports


time (UTC)temp
F
wind
direction
speed
knots
gust
knots
rain 1hr
in
rain 24hr
in
rain mn
in
humidity
%
barometer
mb
20260905032313 79 49 0.0 0.0 0.00 0.00 0.00 88 1013.9
20260905031808 79 49 0.0 0.0 0.00 0.00 0.00 88 1013.9
20260905031304 79 49 0.0 0.0 0.00 0.00 0.00 87 1013.9
20260905030758 79 49 0.0 0.0 0.00 0.00 0.00 87 1014.1
20260905030254 80 49 0.0 0.0 0.00 0.00 0.00 87 1013.9
20260905025748 80 49 0.0 0.0 0.00 0.00 0.00 87 1013.8
20260905025244 80 49 0.0 0.0 0.00 0.00 0.00 87 1014.0
20260905024739 80 49 0.0 0.0 0.00 0.00 0.00 86 1013.9
20260905024235 80 49 0.0 0.0 0.00 0.00 0.00 86 1013.8
20260905023735 80 49 0.0 0.0 0.00 0.00 0.00 85 1013.8
20260905023230 80 49 0.0 0.0 0.00 0.00 0.00 84 1013.9
20260905022729 80 49 0.0 0.0 0.00 0.00 0.00 84 1013.6
20260905022225 81 49 0.0 0.0 0.00 0.00 0.00 84 1013.7
20260905021719 81 49 0.0 0.0 0.00 0.00 0.00 84 1013.6
20260905021214 81 49 0.0 0.0 0.00 0.00 0.00 84 1013.6
20260905020709 81 49 0.0 0.0 0.00 0.00 0.00 84 1013.5
20260905020204 81 49 0.0 0.0 0.00 0.00 0.00 84 1013.6
20260905015703 81 49 0.0 0.0 0.00 0.00 0.00 83 1013.5
20260905015202 81 49 0.0 0.0 0.00 0.00 0.00 82 1013.6
20260905014701 82 49 0.0 0.0 0.00 0.00 0.00 81 1013.6
20260905014156 82 49 0.0 0.0 0.00 0.00 0.00 81 1013.4
20260905013653 82 49 0.0 0.0 0.00 0.00 0.00 81 1013.5
20260905013148 82 49 0.0 0.0 0.00 0.00 0.00 80 1013.5
20260905012644 83 49 0.0 0.0 0.00 0.00 0.00 79 1013.3
20260905012140 83 49 0.0 0.0 0.00 0.00 0.00 79 1013.4
20260905011636 83 49 0.0 0.0 0.00 0.00 0.00 78 1013.3
20260905011131 84 49 0.0 0.0 0.00 0.00 0.00 77 1013.3
20260905010626 84 49 0.0 0.0 0.00 0.00 0.00 76 1013.2
20260905010122 84 49 0.0 0.0 0.00 0.00 0.00 76 1013.2
20260905005618 85 49 0.0 0.0 0.00 0.00 0.00 74 1013.2
20260905005114 85 49 0.0 0.0 0.00 0.00 0.00 73 1013.0
20260905004613 85 49 0.0 0.0 0.00 0.00 0.00 72 1013.1
20260905004108 86 49 0.0 0.0 0.00 0.00 0.00 72 1013.2
20260905003604 86 49 0.0 0.0 0.00 0.00 0.00 71 1013.1
20260905003100 86 49 0.0 0.0 0.00 0.00 0.00 70 1013.0
20260905002555 86 49 0.0 0.0 0.00 0.00 0.00 69 1012.9
20260905002050 87 49 0.0 0.0 0.00 0.00 0.00 67 1013.0
20260905001545 87 49 0.0 0.0 0.00 0.00 0.00 67 1012.9
20260905001044 88 49 0.0 0.0 0.00 0.00 0.00 65 1013.0
20260905000539 89 49 0.0 0.0 0.00 0.00 0.00 64 1012.8
20260905000036 89 49 0.0 0.0 0.00 0.00 0.00 63 1012.8
20260904235530 90 49 0.0 0.0 0.00 0.00 0.00 62 1012.7
20260904235030 91 49 0.0 0.0 0.00 0.00 0.00 61 1012.8
20260904234530 91 49 0.0 0.0 0.00 0.00 0.00 59 1013.0
20260904234026 92 49 0.0 0.0 0.00 0.00 0.00 56 1012.9
20260904233521 93 49 0.0 0.0 0.00 0.00 0.00 55 1012.9
20260904233017 94 49 0.0 0.0 0.00 0.00 0.00 53 1012.9
20260904232514 95 49 0.0 0.0 0.00 0.00 0.00 51 1012.8
20260904232010 96 49 0.0 0.0 0.00 0.00 0.00 50 1012.9
20260904231506 97 49 0.0 0.0 0.00 0.00 0.00 48 1012.7
20260904231000 98 49 0.0 0.0 0.00 0.00 0.00 47 1012.8
20260904230459 98 49 0.0 0.0 0.00 0.00 0.00 47 1012.7
20260904225954 99 49 0.0 0.0 0.00 0.00 0.00 44 1012.9
20260904225452 99 49 0.0 0.0 0.00 0.00 0.00 43 1012.9
20260904224946 99 49 0.0 0.0 0.00 0.00 0.00 47 1012.8
20260904224442 99 49 0.0 0.0 0.00 0.00 0.00 46 1012.7
20260904223942 99 49 0.0 0.0 0.00 0.00 0.00 45 1012.6
20260904223441 100 47 0.0 0.9 0.00 0.00 0.00 44 1012.6
20260904222937 101 48 0.0 0.0 0.00 0.00 0.00 44 1012.6
20260904222432 101 48 0.0 0.0 0.00 0.00 0.00 43 1012.7
20260904221932 101 57 0.0 0.0 0.00 0.00 0.00 43 1012.7
20260904221426 101 57 0.0 0.0 0.00 0.00 0.00 43 1012.6
20260904220922 101 57 0.0 0.0 0.00 0.00 0.00 42 1012.6
20260904220421 101 54 0.0 0.0 0.00 0.00 0.00 44 1012.7
20260904215917 100 49 0.0 0.0 0.00 0.00 0.00 44 1012.6
20260904215412 99 56 0.0 0.0 0.00 0.00 0.00 48 1012.9
20260904214908 99 64 0.0 0.0 0.00 0.00 0.00 47 1012.7
20260904214403 99 58 0.0 0.0 0.00 0.00 0.00 46 1012.7
20260904213901 100 61 0.0 0.0 0.00 0.00 0.00 47 1012.9
20260904213357 100 43 0.0 0.9 0.00 0.00 0.00 43 1012.9
20260904212853 100 23 0.9 0.9 0.00 0.00 0.00 42 1013.0
20260904212352 99 56 0.0 0.0 0.00 0.00 0.00 47 1013.1
20260904211848 98 52 0.0 0.0 0.00 0.00 0.00 47 1013.0
20260904211344 98 267 1.7 2.6 0.00 0.00 0.00 46 1013.1
20260904210838 97 46 0.0 0.0 0.00 0.00 0.00 52 1013.2
20260904210338 95 33 0.9 0.9 0.00 0.00 0.00 52 1013.2
20260904205834 93 16 0.0 0.9 0.00 0.00 0.00 59 1013.5
20260904205330 90 144 1.7 1.7 0.00 0.00 0.00 60 1013.5
20260904204826 87 7 0.9 1.7 0.00 0.00 0.00 64 1013.6
20260904204322 86 337 1.7 1.7 0.00 0.00 0.00 65 1014.0
20260904203818 86 45 0.0 0.9 0.00 0.00 0.00 72 1014.0
20260904203315 86 45 0.0 0.9 0.00 0.00 0.00 70 1014.1
20260904202815 86 40 0.0 0.9 0.00 0.00 0.00 70 1014.0
20260904202311 86 62 0.0 0.0 0.00 0.00 0.00 69 1014.1
20260904201807 87 52 0.9 0.9 0.00 0.00 0.00 64 1014.4
20260904201307 89 355 1.7 2.6 0.00 0.00 0.00 59 1014.3
20260904200802 89 76 0.0 0.9 0.00 0.00 0.00 61 1014.3
20260904200255 91 94 1.7 1.7 0.00 0.00 0.00 55 1014.4
20260904195755 93 252 1.7 1.7 0.00 0.00 0.00 55 1014.4
20260904195254 94 320 4.3 5.2 0.00 0.00 0.00 52 1014.5
20260904194749 95 52 0.0 0.0 0.00 0.00 0.00 54 1014.2
20260904194248 96 52 0.0 0.0 0.00 0.00 0.00 55 1014.4
20260904193743 96 52 0.0 0.0 0.00 0.00 0.00 52 1014.3
20260904193239 96 52 0.0 0.0 0.00 0.00 0.00 54 1014.5
20260904192734 97 54 0.0 0.0 0.00 0.00 0.00 51 1014.4
20260904192229 97 53 0.0 0.0 0.00 0.00 0.00 47 1014.7
20260904191726 99 48 0.0 0.0 0.00 0.00 0.00 46 1014.4
20260904191222 101 30 0.9 0.9 0.00 0.00 0.00 43 1014.7
20260904190718 101 60 0.0 0.0 0.00 0.00 0.00 45 1014.6
20260904190214 102 112 2.6 2.6 0.00 0.00 0.00 40 1014.7
20260904185711 101 50 0.0 0.0 0.00 0.00 0.00 45 1014.8
20260904185211 101 76 0.9 0.9 0.00 0.00 0.00 45 1015.0
20260904184709 100 62 0.0 0.9 0.00 0.00 0.00 43 1014.8
20260904184206 100 47 0.0 0.9 0.00 0.00 0.00 45 1015.1
20260904183701 101 35 0.0 0.0 0.00 0.00 0.00 42 1015.1
20260904183201 102 52 0.0 0.0 0.00 0.00 0.00 44 1015.0
20260904182656 102 66 0.9 0.9 0.00 0.00 0.00 45 1015.1
20260904182151 101 115 0.0 0.9 0.00 0.00 0.00 44 1015.3
20260904181647 99 72 0.0 0.9 0.00 0.00 0.00 46 1015.2
20260904181146 100 59 0.0 0.0 0.00 0.00 0.00 46 1015.2
20260904180642 100 42 0.0 0.9 0.00 0.00 0.00 45 1015.2
20260904180138 99 189 1.7 1.7 0.00 0.00 0.00 44 1015.2
20260904175637 99 20 1.7 1.7 0.00 0.00 0.00 46 1015.3
20260904175135 100 52 0.0 0.9 0.00 0.00 0.00 47 1015.4
20260904174630 100 51 0.0 0.0 0.00 0.00 0.00 50 1015.4
20260904174126 98 60 0.0 0.0 0.00 0.00 0.00 48 1015.6
20260904173621 96 65 0.0 0.0 0.00 0.00 0.00 56 1015.6
20260904173116 96 66 0.9 0.9 0.00 0.00 0.00 53 1015.6
20260904172613 97 64 0.0 0.0 0.00 0.00 0.00 51 1015.7
20260904172112 98 62 0.0 0.0 0.00 0.00 0.00 50 1015.7
20260904171607 99 64 0.0 0.0 0.00 0.00 0.00 51 1015.7
20260904171102 100 103 0.9 1.7 0.00 0.00 0.00 47 1015.7
20260904170558 100 44 0.0 0.9 0.00 0.00 0.00 46 1016.0
20260904170054 100 35 0.9 1.7 0.00 0.00 0.00 45 1015.8
20260904165552 100 45 0.9 0.9 0.00 0.00 0.00 43 1015.9
20260904165052 100 17 0.9 0.9 0.00 0.00 0.00 44 1016.1
20260904164547 98 51 0.0 0.0 0.00 0.00 0.00 45 1015.9
20260904164043 98 72 0.9 0.9 0.00 0.00 0.00 47 1016.0
20260904163543 98 76 0.9 1.7 0.00 0.00 0.00 48 1016.0
20260904163038 96 114 1.7 2.6 0.00 0.00 0.00 49 1016.0
20260904162532 97 59 0.0 0.0 0.00 0.00 0.00 49 1016.1
20260904162028 98 66 0.9 0.9 0.00 0.00 0.00 47 1016.1
20260904161522 97 73 1.7 2.6 0.00 0.00 0.00 47 1016.0
20260904161018 97 75 0.9 0.9 0.00 0.00 0.00 47 1016.0
20260904160513 96 92 0.9 1.7 0.00 0.00 0.00 52 1016.1
20260904160009 97 248 3.5 3.5 0.00 0.00 0.00 49 1016.1
20260904155508 97 242 2.6 2.6 0.00 0.00 0.00 48 1016.1
20260904155008 98 74 0.9 1.7 0.00 0.00 0.00 54 1016.4
20260904154502 98 36 0.9 0.9 0.00 0.00 0.00 49 1016.0
20260904153956 97 67 0.0 0.0 0.00 0.00 0.00 52 1016.1
20260904153451 97 65 0.0 0.9 0.00 0.00 0.00 55 1016.3
20260904152948 97 49 0.9 0.9 0.00 0.00 0.00 51 1016.1
20260904152443 97 41 0.0 0.9 0.00 0.00 0.00 52 1016.3
20260904151943 97 58 0.0 0.0 0.00 0.00 0.00 53 1016.3
20260904151438 96 74 0.9 0.9 0.00 0.00 0.00 52 1016.1
20260904150933 96 55 0.0 0.0 0.00 0.00 0.00 53 1016.1
20260904150428 96 76 0.9 0.9 0.00 0.00 0.00 52 1016.4
20260904145926 95 69 0.0 0.0 0.00 0.00 0.00 55 1016.3
20260904145422 95 120 0.9 0.9 0.00 0.00 0.00 55 1016.1
20260904144917 94 58 0.0 0.0 0.00 0.00 0.00 58 1016.0
20260904144413 93 71 0.0 0.0 0.00 0.00 0.00 58 1016.1
20260904143908 91 50 0.0 0.9 0.00 0.00 0.00 60 1016.4
20260904143405 92 31 0.9 0.9 0.00 0.00 0.00 61 1016.0
20260904142902 91 103 0.9 0.9 0.00 0.00 0.00 62 1016.0
20260904142357 91 101 1.7 1.7 0.00 0.00 0.00 62 1016.1
20260904141856 91 60 0.0 0.0 0.00 0.00 0.00 65 1016.1
20260904141353 90 53 0.0 0.0 0.00 0.00 0.00 64 1016.0
20260904140849 89 48 0.0 0.0 0.00 0.00 0.00 66 1015.9
20260904140349 88 71 0.0 0.0 0.00 0.00 0.00 66 1016.0
20260904135848 87 99 0.9 0.9 0.00 0.00 0.00 68 1015.8
20260904135343 87 13 1.7 1.7 0.00 0.00 0.00 69 1016.0
20260904134839 87 59 0.0 0.0 0.00 0.00 0.00 69 1016.1
20260904134333 87 48 0.9 0.9 0.00 0.00 0.00 69 1015.9
20260904133827 87 43 0.9 0.9 0.00 0.00 0.00 71 1015.9
20260904133323 86 59 0.0 0.0 0.00 0.00 0.00 73 1015.9
20260904132823 85 57 0.0 0.0 0.00 0.00 0.00 73 1016.0
20260904132319 85 51 0.0 0.0 0.00 0.00 0.00 75 1015.9
20260904131818 84 70 0.0 0.0 0.00 0.00 0.00 76 1016.1
20260904131314 84 51 0.0 0.0 0.00 0.00 0.00 77 1016.0
20260904130813 83 51 0.0 0.0 0.00 0.00 0.00 78 1015.8
20260904130314 83 52 0.0 0.0 0.00 0.00 0.00 79 1016.0
20260904125809 82 52 0.0 0.0 0.00 0.00 0.00 82 1015.8
20260904125306 80 52 0.0 0.0 0.00 0.00 0.00 85 1015.9
20260904124804 79 52 0.0 0.0 0.00 0.00 0.00 87 1015.7
20260904124301 78 52 0.0 0.0 0.00 0.00 0.00 89 1015.7
20260904123756 77 52 0.0 0.0 0.00 0.00 0.00 92 1015.8
20260904123251 76 52 0.0 0.0 0.00 0.00 0.00 94 1015.7
20260904122745 75 52 0.0 0.0 0.00 0.00 0.00 94 1016.0
20260904122245 75 52 0.0 0.0 0.00 0.00 0.00 95 1015.7
20260904121740 75 52 0.0 0.0 0.00 0.00 0.00 95 1015.5
20260904121236 74 52 0.0 0.0 0.00 0.00 0.00 95 1015.5
20260904120732 74 52 0.0 0.0 0.00 0.00 0.00 95 1015.8
20260904120228 74 52 0.0 0.0 0.00 0.00 0.00 95 1015.6
20260904115724 74 52 0.0 0.0 0.00 0.00 0.00 95 1015.4
20260904115224 74 52 0.0 0.0 0.00 0.00 0.00 95 1015.4
20260904114719 74 52 0.0 0.0 0.00 0.00 0.00 95 1015.4
20260904114219 74 52 0.0 0.0 0.00 0.00 0.00 95 1015.4
20260904113713 74 52 0.0 0.0 0.00 0.00 0.00 95 1015.2
20260904113212 74 52 0.0 0.0 0.00 0.00 0.00 95 1015.0
20260904112708 74 52 0.0 0.0 0.00 0.00 0.00 95 1015.2
20260904112203 74 52 0.0 0.0 0.00 0.00 0.00 95 1015.1
20260904111700 74 52 0.0 0.0 0.00 0.00 0.00 95 1015.0
20260904111200 74 52 0.0 0.0 0.00 0.00 0.00 95 1015.0
20260904110655 74 52 0.0 0.0 0.00 0.00 0.00 95 1015.1
20260904110154 74 52 0.0 0.0 0.00 0.00 0.00 95 1015.0
20260904105649 74 52 0.0 0.0 0.00 0.00 0.00 94 1014.7
20260904105144 75 52 0.0 0.0 0.00 0.00 0.00 94 1014.7
20260904104640 75 52 0.0 0.0 0.00 0.00 0.00 94 1014.7
20260904104135 75 52 0.0 0.0 0.00 0.00 0.00 93 1014.6
20260904103632 75 52 0.0 0.0 0.00 0.00 0.00 93 1014.7
20260904103127 75 52 0.0 0.0 0.00 0.00 0.00 93 1014.7
20260904102623 75 52 0.0 0.0 0.00 0.00 0.00 92 1014.8
20260904102118 76 52 0.0 0.0 0.00 0.00 0.00 92 1014.6
20260904101615 76 52 0.0 0.0 0.00 0.00 0.00 92 1014.8
20260904101110 76 52 0.0 0.0 0.00 0.00 0.00 92 1014.4
20260904100606 76 52 0.0 0.0 0.00 0.00 0.00 91 1014.5
20260904100100 76 52 0.0 0.0 0.00 0.00 0.00 91 1014.5
20260904095556 76 52 0.0 0.0 0.00 0.00 0.00 91 1014.6
20260904095051 76 52 0.0 0.0 0.00 0.00 0.00 90 1014.4
20260904094551 76 52 0.0 0.0 0.00 0.00 0.00 90 1014.4
20260904094046 77 52 0.0 0.0 0.00 0.00 0.00 89 1014.4
20260904093543 77 52 0.0 0.0 0.00 0.00 0.00 89 1014.6
20260904093043 77 52 0.0 0.0 0.00 0.00 0.00 89 1014.3
20260904092538 77 52 0.0 0.0 0.00 0.00 0.00 89 1014.1
20260904092035 77 52 0.0 0.0 0.00 0.00 0.00 89 1014.3
20260904091531 77 52 0.0 0.0 0.00 0.00 0.00 89 1014.0
20260904091030 77 52 0.0 0.0 0.00 0.00 0.00 89 1014.1
20260904090526 77 52 0.0 0.0 0.00 0.00 0.00 89 1014.0
20260904090022 77 52 0.0 0.0 0.00 0.00 0.00 89 1014.0
20260904085516 77 52 0.0 0.0 0.00 0.00 0.00 89 1014.1
20260904085016 77 52 0.0 0.0 0.00 0.00 0.00 90 1014.1
20260904084512 77 52 0.0 0.0 0.00 0.00 0.00 90 1014.0
20260904084008 77 52 0.0 0.0 0.00 0.00 0.00 91 1014.0
20260904083504 76 52 0.0 0.0 0.00 0.00 0.00 91 1014.0
20260904082959 76 52 0.0 0.0 0.00 0.00 0.00 91 1014.0
20260904082454 76 52 0.0 0.0 0.00 0.00 0.00 91 1013.9
20260904081949 76 52 0.0 0.0 0.00 0.00 0.00 92 1014.2
20260904081444 76 52 0.0 0.0 0.00 0.00 0.00 92 1014.1
20260904080940 76 52 0.0 0.0 0.00 0.00 0.00 92 1014.0
20260904080435 76 52 0.0 0.0 0.00 0.00 0.00 93 1014.1
20260904075931 76 52 0.0 0.0 0.00 0.00 0.00 93 1014.2
20260904075427 76 52 0.0 0.0 0.00 0.00 0.00 93 1014.2
20260904074925 76 52 0.0 0.0 0.00 0.00 0.00 92 1014.1
20260904074421 76 52 0.0 0.0 0.00 0.00 0.00 93 1014.1
20260904073916 76 52 0.0 0.0 0.00 0.00 0.00 93 1014.2
20260904073412 76 52 0.0 0.0 0.00 0.00 0.00 93 1014.0
20260904072907 76 52 0.0 0.0 0.00 0.00 0.00 93 1014.1
20260904072402 76 52 0.0 0.0 0.00 0.00 0.00 93 1014.2
20260904071858 76 52 0.0 0.0 0.00 0.00 0.00 92 1014.2
20260904071353 76 52 0.0 0.0 0.00 0.00 0.00 92 1014.3
20260904070848 76 52 0.0 0.0 0.00 0.00 0.00 92 1014.1
20260904070346 76 52 0.0 0.0 0.00 0.00 0.00 91 1014.3
20260904065841 76 52 0.0 0.0 0.00 0.00 0.00 91 1014.3
20260904065338 77 52 0.0 0.0 0.00 0.00 0.00 90 1014.1
20260904064832 77 52 0.0 0.0 0.00 0.00 0.00 90 1014.2
20260904064328 77 52 0.0 0.0 0.00 0.00 0.00 90 1014.2
20260904063819 77 52 0.0 0.0 0.00 0.00 0.00 90 1014.2
20260904063315 77 52 0.0 0.0 0.00 0.00 0.00 90 1014.2
20260904062810 77 52 0.0 0.0 0.00 0.00 0.00 90 1014.2
20260904062306 77 52 0.0 0.0 0.00 0.00 0.00 90 1014.2
20260904061801 77 52 0.0 0.0 0.00 0.00 0.00 90 1014.4
20260904061257 77 52 0.0 0.0 0.00 0.00 0.00 90 1014.3
20260904060754 77 52 0.0 0.0 0.00 0.00 0.00 90 1014.4
20260904060249 77 52 0.0 0.0 0.00 0.00 0.00 90 1014.5
20260904055744 77 52 0.0 0.0 0.00 0.00 0.00 90 1014.4
20260904055244 77 52 0.0 0.0 0.00 0.00 0.00 90 1014.4
20260904054740 77 52 0.0 0.0 0.00 0.00 0.00 90 1014.4
20260904054236 77 52 0.0 0.0 0.00 0.00 0.00 90 1014.6
20260904053731 77 52 0.0 0.0 0.00 0.00 0.00 90 1014.6
20260904053230 77 52 0.0 0.0 0.00 0.00 0.00 90 1014.4
20260904052727 77 52 0.0 0.0 0.00 0.00 0.00 90 1014.3
20260904052223 77 52 0.0 0.0 0.00 0.00 0.00 90 1014.4
20260904051719 77 52 0.0 0.0 0.00 0.00 0.00 90 1014.4
20260904051214 77 52 0.0 0.0 0.00 0.00 0.00 89 1014.4
20260904050714 77 52 0.0 0.0 0.00 0.00 0.00 89 1014.6
20260904050211 78 52 0.0 0.0 0.00 0.00 0.00 88 1014.6
20260904045710 78 52 0.0 0.0 0.00 0.00 0.00 88 1014.5
20260904045205 78 52 0.0 0.0 0.00 0.00 0.00 88 1014.4
20260904044701 78 52 0.0 0.0 0.00 0.00 0.00 88 1014.5
20260904044157 78 52 0.0 0.0 0.00 0.00 0.00 87 1014.5
20260904043653 78 52 0.0 0.0 0.00 0.00 0.00 87 1014.5
20260904043149 78 52 0.0 0.0 0.00 0.00 0.00 87 1014.4
20260904042644 78 52 0.0 0.0 0.00 0.00 0.00 88 1014.5
20260904042140 78 52 0.0 0.0 0.00 0.00 0.00 89 1014.5
20260904041635 78 52 0.0 0.0 0.00 0.00 0.00 89 1014.6
20260904041131 78 52 0.0 0.0 0.00 0.00 0.00 89 1014.5
20260904040627 78 52 0.0 0.0 0.00 0.00 0.00 89 1014.5
20260904040123 78 52 0.0 0.0 0.00 0.00 0.00 90 1014.6
20260904035619 78 52 0.0 0.0 0.00 0.00 0.00 89 1014.5
20260904035113 79 52 0.0 0.0 0.00 0.00 0.00 88 1014.5
20260904034607 79 52 0.0 0.0 0.00 0.00 0.00 88 1014.5
20260904034103 79 52 0.0 0.0 0.00 0.00 0.00 87 1014.5
20260904033559 79 52 0.0 0.0 0.00 0.00 0.00 87 1014.5
20260904033056 79 52 0.0 0.0 0.00 0.00 0.00 86 1014.5
20260904032551 79 52 0.0 0.0 0.00 0.00 0.00 86 1014.6